This demonstration page uses our WeatherBlox Daily Observations layout. Learn more.

Left ArrowRight Arrow

Hourly Observations for October 20, 2021

Temp ( °F °C ) Dew Point ( °F °C ) Humidity (%) Winds ( mph kmh ) Pressure ( in mb ) Visibility ( mi km ) Precip ( " mm )
12:54 am 00:54 Clear 63 17.2 54 12.2 73 73 SSE 10 17 29.83 1010 10 16 N/A
1:54 am 01:54 Clear 63 17.2 54 12.2 73 73 S 8 13 29.82 1010 10 16 N/A
2:54 am 02:54 Clear 61 16.1 54 12.2 78 78 SSE 7 11 29.82 1010 10 16 N/A
3:54 am 03:54 Clear 61 16.1 54 12.2 78 78 SSE 8 13 29.82 1010 10 16 N/A
4:54 am 04:54 Clear 60 15.6 54 12.2 80 80 SSE 12 19 29.80 1009 10 16 N/A
5:54 am 05:54 Clear 57 13.9 53 11.7 87 87 S 6 9 29.83 1010 10 16 N/A
6:27 am 06:27 Mostly Cloudy 59 15 54 12.2 83 83 WSW 3 6 29.85 1011 10 16 N/A
6:52 am 06:52 Cloudy 61 16 54 12 77 77 W 10 17 29.84 1011 10 16 N/A
6:54 am 06:54 Cloudy 60 15.6 54 12.2 80 80 W 14 22 29.83 1010 10 16 N/A
7:03 am 07:03 Cloudy 58 14.4 52 11.1 81 81 NW 17 28 29.86 1011 10 16 N/A
7:54 am 07:54 Cloudy 55 12.8 49 9.4 80 80 NW 13 20 29.89 1012 10 16 N/A
8:54 am 08:54 Cloudy 53 11.7 46 7.8 77 77 WNW 16 26 29.94 1014 10 16 N/A
9:54 am 09:54 Cloudy 51 10.6 44 6.7 77 77 WNW 15 24 29.98 1015 10 16 N/A
10:54 am 10:54 Cloudy 52 11.1 44 6.7 75 75 WNW 15 24 29.99 1016 10 16 N/A
11:54 am 11:54 Cloudy 53 11.7 42 5.6 66 66 W 18 30 30.01 1016 10 16 N/A
12:54 pm 12:54 Cloudy 53 11.7 40 4.4 61 61 WNW 21 33 30.02 1017 10 16 N/A
1:54 pm 13:54 Cloudy 53 11.7 40 4.4 61 61 W 20 31 30.02 1017 10 16 N/A
2:54 pm 14:54 Cloudy 52 11.1 40 4.4 64 64 W 23 37 30.03 1017 10 16 N/A
3:54 pm 15:54 Mostly Cloudy 54 12.2 39 3.9 57 57 WNW 18 30 30.02 1017 10 16 N/A
4:09 pm 16:09 Mostly Cloudy 54 12.2 39 3.9 57 57 WNW 20 31 30.04 1017 10 16 N/A
4:54 pm 16:54 Cloudy 53 11.7 39 3.9 59 59 WNW 15 24 30.04 1017 10 16 N/A
5:54 pm 17:54 Cloudy 52 11.1 37 2.8 57 57 NW 21 33 30.06 1018 10 16 N/A
6:54 pm 18:54 Cloudy 50 10 37 2.8 61 61 NW 16 26 30.07 1018 10 16 N/A
7:54 pm 19:54 Mostly Cloudy 49 9.4 36 2.2 61 61 NW 15 24 30.09 1019 10 16 N/A
8:09 pm 20:09 Cloudy 49 9.4 36 2.2 61 61 NW 13 20 30.10 1019 10 16 N/A
8:54 pm 20:54 Cloudy 48 8.9 35 1.7 61 61 WNW 15 24 30.09 1019 10 16 N/A
9:54 pm 21:54 Cloudy 47 8.3 34 1.1 61 61 WNW 15 24 30.11 1020 10 16 N/A
10:26 pm 22:26 Cloudy 47 8.3 34 1.1 61 61 NW 14 22 30.13 1020 10 16 N/A
10:54 pm 22:54 Cloudy 46 7.8 34 1.1 63 63 WNW 9 15 30.12 1020 10 16 N/A
11:36 pm 23:36 Cloudy 46 7.8 35 1.7 66 66 WNW 14 22 30.13 1020 10 16 N/A
11:54 pm 23:54 Cloudy 47 8.3 35 1.7 63 63 NW 14 22 30.12 1020 10 16 N/A

Powered by AerisWeather